weather.gov     
National Weather Service

Terminal Aerodrome Forecast
NWS Homepage
This page is being discontinued on March 12, 2014.
The same data is available at this site. Please update your bookmarks.
Thank you, and we apologize for the inconvenience.
Please send an email to SR-SRH.Webmaster@noaa.gov with any concerns.


Current Version
Previous Version:    01  02  03  04  05  06  07  08  09  10  11  12  13  14  15  16  17  18  19  20  21  22  23  24  25  26  27  28  29  
[Printable]
481
FTUS43 KICT 231700
TAFRSL
TAF
KRSL 231735Z 2318/2418 19030G39KT P6SM SCT150
     FM240100 19016KT P6SM VCTS SCT030 BKN080CB
     FM240400 20016KT P6SM TSRA BKN030CB
     FM240700 26017KT P6SM VCTS BKN030CB
     FM240900 33021G30KT P6SM VCSH BKN025
     FM241400 33015KT P6SM SCT025 BKN080=


U.S. Dept. of Commerce
NOAA National Weather Service
1325 East West Highway
Silver Spring, MD 20910
E-mail: w-nws.webmaster@noaa.gov
Page last modified: May 16, 2007
NATIONAL WEATHER SERVICE: for Safety, for Work, for Fun - FOR LIFE